#timestamp,LO_Frequency,Hit 
1504317615.5,286046984.9,N
1504317635.3,286046985.8,N
1504317655.1,286046987.9,N
1504317675.9,286046985.8,N
1504317695.7,286046985.9,N
1504317715.5,286046987.3,N
1504317735.4,286046989.7,N
1504317755.2,286046987.9,N
1504317775.0,286046985.1,P
1504317775.9,286046985.1,P
1504317795.8,286046995.6,P
1504317815.6,286046999.1,N
1504317835.4,286047003.9,N
1504317855.3,286047005.6,N
1504317875.1,286047003.0,N
1504317876.0,286047003.0,N
1504317895.8,286047003.6,N
1504317915.7,286047010.5,N
1504317935.5,286047009.4,N
1504317955.3,286047011.3,N
1504317975.1,286047015.2,N
1504317995.9,286047015.7,N
1504318015.7,286047021.5,N
1504318035.5,286047021.3,N
1504318055.4,286047021.6,N
1504318075.2,286047019.6,N
1504318095.0,286047022.4,N
1504318095.9,286047022.4,N
1504318115.8,286047023.6,N
1504318135.6,286047026.2,N
1504318155.4,286047024.4,N
1504318175.3,286047021.3,N
1504318195.1,286047027.7,N
1504318196.0,286047027.7,N
1504318215.8,286047029.1,N
1504318235.7,286047030.9,N
1504318255.5,286047028.6,N
1504318275.3,286047027.4,N
1504318295.2,286047028.8,N
1504318315.9,286047030.6,N
1504318335.7,286047028.8,N
1504318355.6,286047030.4,P
1504318375.4,286047014.0,N
1504318395.2,286047011.9,N
1504318415.1,286047012.9,N
1504318416.0,286047012.9,N
1504318435.8,286047017.1,N
1504318455.6,286047016.0,N
1504318475.5,286047013.6,N
1504318495.3,286047011.5,N
1504318515.1,286047012.2,N
1504318535.9,286047007.7,N
1504318555.7,286047010.0,N
1504318575.5,286047009.1,N
1504318595.3,286047003.4,N
1504318615.2,286047005.1,N
1504318635.0,286047006.7,N
1504318635.9,286047006.7,N
1504318655.7,286047004.8,N
1504318675.6,286047007.9,N
1504318695.4,286047012.3,N
1504318715.2,286047006.3,N
1504318735.1,286047003.6,N
1504318736.0,286047003.6,N
1504318755.8,286047006.7,N
1504318775.6,286047006.5,N
1504318795.5,286047007.0,N
1504318815.3,286047006.1,N
1504318835.1,286047010.8,N
1504318855.9,286047012.1,N
1504318875.7,286047015.1,N
1504318895.5,286047012.4,N
1504318915.4,286047013.4,P
1504318935.2,286047004.2,N
1504318955.0,286047002.5,N
1504318955.9,286047002.5,N
1504318975.8,286047000.5,N
1504318995.6,286046997.1,N
1504319015.4,286047001.1,N
1504319035.3,286046998.2,N
1504319055.1,286047002.7,N
1504319056.0,286047002.7,N
1504319075.8,286047003.9,N
1504319095.7,286046996.5,N
1504319115.5,286046989.3,N
1504319135.3,286046988.2,N
1504319155.2,286046987.5,N
1504319175.9,286046983.7,N
1504319195.7,286046985.6,N
1504319215.5,286046985.0,N
1504319235.4,286046977.3,N
1504319255.2,286046981.6,N
1504319275.0,286046983.4,N
1504319275.9,286046983.4,N
1504319295.8,286046981.5,N
1504319315.6,286046984.8,N
1504319335.4,286046986.0,N
1504319355.3,286046985.5,N
1504319375.1,286046984.3,N
1504319376.0,286046984.3,N
1504319395.8,286046983.0,N
1504319415.7,286046975.9,N
1504319435.5,286046976.9,N
1504319455.3,286046970.5,P
1504319475.2,286046977.9,N
1504319495.9,286046981.5,N
1504319515.7,286046981.7,N
1504319535.6,286046981.4,N
1504319555.4,286046986.6,N
1504319575.2,286046987.1,N
1504319595.1,286046987.2,N
1504319596.0,286046987.2,N
1504319615.8,286046985.7,N
1504319635.6,286046981.1,P
1504319655.5,286047001.2,N
1504319675.3,286046998.2,N
1504319695.1,286046999.8,N
1504319715.9,286047004.6,N
1504319735.7,286047006.9,N
1504319755.5,286047004.4,N
1504319775.4,286047004.7,N
1504319795.2,286047004.2,N
1504319815.0,286047005.7,N
1504319815.9,286047005.7,N
1504319835.8,286047008.9,N
1504319855.6,286047008.0,N
1504319875.4,286047007.1,N
1504319895.2,286047004.7,N
1504319915.1,286047004.6,N
1504319916.0,286047004.6,N
1504319935.8,286047006.0,N
1504319955.6,286047011.9,N
1504319975.5,286047014.7,N
1504319995.3,286047014.3,N
1504320015.1,286047019.1,N
1504320035.9,286047021.5,N
1504320055.7,286047019.8,N
1504320075.5,286047018.8,N
1504320095.4,286047019.1,N
1504320115.2,286047022.3,N
1504320135.0,286047025.2,N
1504320135.9,286047025.2,N
1504320155.8,286047020.8,N
1504320175.6,286047021.9,N
1504320195.4,286047019.8,N
1504320215.3,286047019.8,N
1504320235.1,286047021.1,N
1504320236.0,286047021.1,N
1504320255.8,286047021.4,N
1504320275.7,286047020.3,N
1504320295.5,286047020.1,N
1504320315.3,286047016.4,N
1504320335.2,286047017.7,N
1504320355.9,286047017.7,N
1504320375.7,286047019.3,P
1504320395.6,286047003.9,N
1504320415.4,286047000.3,N
1504320435.2,286047003.9,N
1504320455.1,286047004.2,N
1504320456.0,286047004.2,N
1504320475.8,286047001.8,N
1504320495.6,286047003.9,N
1504320515.5,286047000.8,N
1504320535.3,286047002.3,N
1504320555.1,286047004.1,N
1504320575.8,286047004.4,N
1504320595.7,286047002.1,N
1504320615.5,286046998.2,N
1504320635.3,286047006.5,N
1504320655.2,286047006.5,N
1504320675.0,286047006.2,N
1504320675.9,286047006.2,N
1504320695.7,286047012.8,N
1504320715.6,286047009.4,N
1504320735.4,286047010.9,N
1504320755.2,286047014.6,N
1504320775.1,286047017.2,P
1504320776.0,286047017.2,P
1504320795.8,286047005.5,N
1504320815.6,286047005.2,N
1504320835.5,286047004.6,N
1504320855.3,286047003.4,N
1504320875.1,286047001.4,N
1504320895.9,286047002.2,N
1504320915.7,286047002.9,N
1504320935.5,286047006.5,N
1504320955.4,286047006.6,N
1504320975.2,286047007.0,N
1504320995.0,286047001.7,N
1504320995.9,286047001.7,N
1504321015.8,286047001.8,N
1504321035.6,286047003.8,N
1504321055.4,286047005.3,N
1504321075.3,286047014.0,P
1504321095.1,286047005.0,N
1504321096.0,286047005.0,N
1504321115.8,286047002.0,N
1504321135.7,286046995.0,N
1504321155.5,286046990.3,N
1504321175.3,286046989.3,N
1504321195.2,286046991.2,N
